Location: Aulnoy
(48.8410°N, 3.0967°E)
Time: 23:05:05
(UTC+00:00)

Envisat - Pass Details

Date: 04 March 2024
Orbit: 762 x 764 km, 98.3° (Epoch: 12 April)

Event Time Altitude Azimuth Distance (km) Brightness Sun altitude
Rises 03:27:16 0° 13° (NNE) 3,242 6.8 -29.0°
Reaches altitude 10° 03:29:35 10° 13° (NNE) 2,311 5.9 -28.7°
Enters shadow 03:33:57 66° 6° (N) 836 3.2 -28.0°
